Location: Palomar Mountain Lodge
(33.3110°N, 116.8495°W)
Time: 03:23:57
(UTC-07:00)

Daily predictions for brighter satellites

Satellite Brightness Start Highest point End
(mag) Time Altitude Azimuth Time Altitude Azimuth Time Altitude Azimuth
ATLAS 2AS CENTAUR R/B 4.3 00:34:57 10° NW 00:38:02 23° WNW 00:38:02 23° WNW
CZ-2D R/B 4.1 01:33:21 10° NE 01:35:55 23° ENE 01:35:55 23° ENE
Resurs 1-4 Rocket 3.8 01:42:27 10° NNE 01:45:12 27° NE 01:45:12 27° NE
Lacrosse 5 4.0 01:58:14 22° NNW 01:58:14 22° NNW 02:01:02 10° NNE
BREEZE-M DEB (TANK) 4.2 01:59:11 36° NE 01:59:11 36° NE 02:04:31 10° NE
Cosmos 2227 Rocket 4.1 02:01:59 10° N 02:06:31 24° ENE 02:08:24 21° E
Cosmos 2297 Rocket 3.5 02:04:23 10° N 02:09:31 34° ENE 02:09:51 34° ENE
USA 215 3.3 02:12:05 71° NNE 02:12:05 71° NNE 02:18:10 10° NW
SL-16 R/B 3.1 02:14:30 51° E 02:14:45 52° ENE 02:20:47 10° N
USA 281 3.2 02:27:06 79° NE 02:27:06 79° NE 02:33:27 10° NNW
COSMOS 2455 3.2 02:22:11 10° NNW 02:27:35 61° NNE 02:27:35 61° NNE
Lacrosse 4 Rocket 3.4 02:34:30 29° NE 02:34:30 29° NE 02:36:50 10° NE
Cosmos 1953 4.4 02:43:40 10° N 02:45:23 24° N 02:45:23 24° N
Cosmos 1725 Rocket 4.2 02:42:08 10° N 02:48:18 63° E 02:49:10 57° ESE
Cosmos 2251 Rocket 4.2 02:43:56 10° NNW 02:47:42 48° N 02:47:42 48° N
Cosmos 2219 3.3 02:46:59 10° NNW 02:52:42 73° ENE 02:52:43 73° ENE
Cosmos 1459 Rocket 4.2 02:48:27 10° NNW 02:53:42 56° NW 02:53:42 56° NW
IRS-1D 3.9 02:49:35 10° NNE 02:54:41 61° E 02:54:41 61° E
IDEFIX/ARIANE 42P 3.6 02:52:49 10° NNE 02:57:42 38° E 02:58:22 36° ESE
Cosmos 614 Rocket 4.3 02:56:27 10° NNW 03:00:39 61° N 03:00:39 61° N
OAO 2 Rocket 3.8 03:03:19 57° E 03:03:19 57° E 03:07:35 10° ENE
Cosmos 2016 Rocket 3.8 02:56:54 10° N 03:03:08 82° W 03:03:17 81° WSW
BREEZE M DEB (TANK) 4.3 03:02:30 41° SSE 03:03:40 45° ESE 03:24:55 10° ENE
BREEZE-M DEB (TANK) 3.8 03:07:51 32° NNE 03:07:51 32° NNE 03:09:14 10° NE
Cosmos 2061 Rocket 3.9 03:02:38 10° N 03:09:00 79° W 03:09:35 72° SSW
Timation 2 Rocket 3.7 03:03:03 10° NNW 03:09:03 88° WSW 03:09:42 73° SSE
Meteor 2-5 Rocket 4.2 03:09:14 47° SE 03:10:26 56° E 03:15:56 10° NNE
Cosmos 2285 Rocket 4.0 03:11:54 62° S 03:13:01 78° ESE 03:19:26 10° NNE
ADEOS II 2.1 03:09:44 10° N 03:14:41 66° NW 03:14:41 66° NW
Atlas Centaur 2 3.8 03:15:15 28° SSE 03:15:15 28° SSE 03:20:50 10° E
SL-14 R/B 4.3 03:18:38 42° N 03:18:38 42° N 03:21:19 10° N
CZ-2D R/B 3.4 03:13:27 10° NNW 03:17:15 27° NW 03:17:15 27° NW
Cosmos 2360 4.5 03:18:03 53° WNW 03:18:06 53° WNW 03:23:41 10° N
Cosmos 1697 Rocket 3.3 03:21:37 40° WNW 03:21:37 40° WNW 03:26:49 10° N
ARIANE 5 R/B 3.6 03:18:43 10° NNE 03:23:27 38° E 03:25:20 28° SE
Cosmos 1420 Rocket 4.1 03:24:12 59° SSE 03:24:56 67° ESE 03:30:04 10° NNE
Meteor 1-16 Rocket 4.4 03:20:38 10° NNW 03:26:14 54° W 03:26:14 54° W
Resurs 1-4 Rocket 3.7 03:22:56 10° NNW 03:26:17 21° WNW 03:26:17 21° WNW
NOSS 3-2 (A) 4.5 03:31:21 24° SSE 03:33:30 32° ESE 03:38:35 10° NE
Cosmos 1980 Rocket 2.2 03:32:55 59° WSW 03:33:40 66° WNW 03:39:19 10° NNE
Cosmos 1626 4.2 03:39:23 18° NW 03:39:23 18° NW 03:40:45 10° NNW
CZ-4B R/B 3.8 03:34:23 10° NNE 03:39:22 61° ESE 03:41:18 36° SSE
APEX 4.0 03:40:40 10° NNW 03:45:36 85° WSW 03:51:42 10° SSE
Cosmos 407 Rocket 3.4 03:41:01 10° NNW 03:46:22 73° WSW 03:48:26 38° S
Cosmos 2227 Rocket 2.7 03:45:27 10° NW 03:50:08 37° W 03:50:08 37° W
CBERS-1 4.4 03:45:58 10° N 03:50:48 44° WNW 03:51:30 42° W
Cosmos 1300 2.5 03:47:30 10° N 03:51:19 84° W 03:51:23 83° SW
Cosmos 2297 Rocket 3.5 03:48:42 10° NW 03:51:35 22° WNW 03:51:35 22° WNW
ADEOS Rocket 3.5 03:49:10 23° S 03:53:57 66° W 04:01:39 10° NNW
Cosmos 2278 4.0 03:52:41 41° WSW 03:54:05 50° WNW 03:59:38 10° N
MSX 3.7 03:51:02 10° N 03:56:49 80° WNW 03:59:31 33° SSW
SL-16 R/B 3.9 03:59:36 20° W 03:59:36 20° W 04:03:04 10° NW
ISS -0.4 04:03:04 10° N 04:04:45 13° NNE 04:06:26 10° ENE
Cosmos 2082 3.7 04:00:11 10° NNW 04:05:46 60° WSW 04:11:22 10° S
SL-16 R/B 2.6 04:04:07 21° S 04:07:51 62° ESE 04:13:25 10° NNE
Cosmos 1452 Rocket 3.4 04:05:20 30° SSW 04:07:58 89° ESE 04:13:15 10° NNE
Cosmos 1606 Rocket 4.0 04:06:28 10° N 04:10:50 63° E 04:15:13 10° SSE
IRS-1C 4.3 04:05:59 10° N 04:11:09 53° WNW 04:13:25 31° SW
Lacrosse 4 Rocket 3.6 04:10:47 13° WNW 04:11:27 14° NW 04:13:41 10° NNW
CENTAUR R/B 3.2 04:07:56 17° S 04:11:54 44° ESE 04:17:54 10° NE
Cosmos 292 Rocket 3.7 04:11:22 34° SSW 04:13:24 70° WNW 04:18:15 10° NNE
Cosmos 1954 Rocket 4.0 04:08:56 10° NNW 04:14:14 88° ENE 04:19:32 10° SSE
Cosmos 2228 2.9 04:12:25 10° N 04:16:43 88° W 04:20:33 13° S
Cosmos 1340 3.8 04:18:13 26° WNW 04:18:13 26° WNW 04:21:18 10° NNW
Cosmos 2346 Rocket 4.4 04:12:49 13° S 04:18:13 86° E 04:24:17 10° N
Spot 4 Rocket 4.0 04:17:20 10° NNE 04:22:29 89° WNW 04:26:34 16° SSW
CZ-3B R/B 2.8 04:23:12 17° SSE 04:23:12 17° SSE 04:25:28 10° SE
CZ-2C R/B 3.1 04:24:10 10° NNE 04:28:10 67° E 04:31:50 12° S
Cosmos 1110 Rocket 4.3 04:24:46 12° S 04:29:33 65° ESE 04:34:40 10° NNE
SEDSat Delta rocket 4.3 04:27:07 22° SSW 04:29:39 34° SSE 04:33:57 10° E
Cosmos 1513 Rocket 4.4 04:25:09 10° N 04:31:19 77° W 04:37:22 10° S
Aureole 2 Rocket 1.6 04:31:15 10° NNW 04:33:56 89° ESE 04:36:35 10° SSE
Cosmos 2322 Rocket 2.2 04:30:51 14° SSW 04:35:45 84° ESE 04:41:28 10° NNE
Cosmos 1464 Rocket 3.9 04:29:50 10° N 04:36:00 77° W 04:42:12 10° S
SWAS 4.4 04:33:36 21° SSW 04:36:24 75° WNW 04:40:42 10° NNE
CZ-2C R/B 2.5 04:31:30 10° NNE 04:36:40 90° W 04:41:51 10° SSW
IDEFIX/ARIANE 42P 4.0 04:33:02 10° NNW 04:36:59 22° WNW 04:39:11 17° W
Cosmos 2034 Rocket 4.1 04:39:17 10° N 04:45:39 88° E 04:51:55 10° S
Meteor 1-21 Rocket 4.2 04:40:24 10° S 04:46:02 86° E 04:51:36 10° N
Meteor 2-10 Rocket 3.8 04:41:45 10° NNW 04:47:14 53° W 04:52:29 10° S
OAO 2 Rocket 3.6 04:42:15 12° W 04:47:14 73° N 04:52:33 10° E
Cosmos 2263 Rocket 2.2 04:41:53 10° NNW 04:47:34 85° WSW 04:53:14 10° SSE
OAO 1 Rocket 4.5 04:45:25 16° W 04:49:48 87° NNW 04:55:10 10° ENE
USA 32 4.0 04:46:46 10° N 04:52:02 76° W 04:57:15 10° S
ALOS 2.5 04:48:44 10° NNE 04:53:23 73° E 04:58:01 10° S
SL-08 R/B 3.9 04:49:47 10° SSW 04:54:05 35° W 04:58:21 10° NNW
Cosmos 2360 Rocket 2.4 04:53:28 10° SSW 04:59:06 73° ESE 05:04:45 10° NNE
Cosmos 2219 Rocket 4.4 04:55:42 10° SSE 05:00:09 25° ESE 05:04:38 10° NE
NOSS 3-2 (C) 3.2 04:55:09 10° SSW 05:00:32 86° WNW 05:06:36 10° NNE
Cosmos 1441 Rocket 4.2 04:57:01 10° S 05:00:47 51° E 05:04:37 10° NNE
ARIANE 5 R/B 4.0 04:58:32 10° NNW 05:02:13 20° WNW 05:05:41 11° WSW
Atlas Centaur 2 2.9 04:57:48 13° WSW 05:04:18 53° SSE 05:10:02 10° E
ATLAS 2A CENTAUR R/B 3.3 05:00:51 12° SW 05:04:27 41° SSE 05:17:10 10° E
Cosmos 2237 4.2 04:59:03 10° SSW 05:04:46 80° WNW 05:10:29 10° NNE
SL-24 R/B 3.7 05:05:58 10° S 05:09:37 82° WSW 05:13:35 10° NNW
PSLV R/B 3.5 05:06:12 10° N 05:10:21 62° WNW 05:14:30 10° SSW
OAO 3 Copernicus 4.3 05:06:34 10° WSW 05:11:35 85° SSE 05:16:39 10° ENE
CZ-2C R/B 2.8 05:15:25 10° SW 05:16:31 11° SSW 05:17:37 10° S
SJ-6F 4.4 05:19:33 10° N 05:23:37 78° WNW 05:27:39 10° SSW
NOSS 3-2 (A) 4.3 05:19:20 10° WSW 05:24:10 31° NW 05:29:34 10° NNE
